Hourly Data Report for January 09, 2012

HALIFAX STANFIELD INT'L A
NOVA SCOTIA

44°52'48.060" N
63°30'00.050" W
145.40 m
8202250
71395
YHZ

Download Data

Hourly Data (January 2012)
Hourly Data Report for January 9, 2012
TIME
LST
Temp Definition
°C
Dew Point Definition
°C
Rel Hum Definition
%
Precip. Amount Definition
mm

Wind Dir Definition
10's deg

Wind Spd Definition
km/h
Visibility Definition
km
Stn Press Definition
kPa
Hmdx Definition


Wind Chill Definition


Weather Definition


00:00 -3.0 -5.4 83   5 9 24.1 100.19   -7 Snow Showers
01:00 -3.1 -4.9 87   6 4 6.4 100.21   -5 Snow Showers
02:00 -3.4 -4.8 90   2 4 4.0 100.19   -5 Snow
03:00 -3.5 -4.5 93   34 9 4.0 100.20   -7 Snow
04:00 -3.8 -4.8 93   4 4 9.7 100.16   -5 Snow
05:00 -4.1 -5.0 93   36 9 24.1 100.11   -8 Snow
06:00 -3.8 -4.8 93   32 6 24.1 100.16   -6 Snow
07:00 -4.2 -5.2 93     0 24.1 100.16     Snow
08:00 -4.1 -5.1 93     0 24.1 100.18     Snow
09:00 -3.6 -4.7 92   28 6 19.3 100.20   -6 Snow
10:00 -3.2 -4.2 93   31 19 6.4 100.21   -9 Snow
11:00 -3.8 -6.4 82   31 24 19.3 100.25   -11 Snow
12:00 -4.2 -6.8 82   32 19 24.1 100.18   -10 Snow
13:00 -4.2 -8.0 75   32 20 24.1 100.10   -11 Mostly Cloudy
14:00 -3.8 -9.8 63   28 20 24.1 100.07   -10 Mostly Cloudy
15:00 -4.0 -11.2 57   30 19 24.1 100.06   -10 Mainly Clear
16:00 -4.6 -12.9 52   30 20 24.1 100.11   -11 Mainly Clear
17:00 -5.6 -11.6 63   31 19 24.1 100.14   -12 Mainly Clear
18:00 -6.3 -11.4 67   29 11 24.1 100.15   -11 Mainly Clear
19:00 -7.1 -11.3 72   26 9 24.1 100.16   -11 Clear
20:00 -7.7 -11.3 75   25 9 24.1 100.20   -12 Clear
21:00 -7.5 -11.3 74   26 9 24.1 100.17   -12 Clear
22:00 -8.8 -11.5 81   24 7 24.1 100.12   -13 Clear
23:00 -9.6 -11.3 87   24 9 24.1 100.09   -14 Clear

Notes on Data Quality.

Legend

  • E = Estimated
  • M = Missing
  • NA = Not Available*
  • [empty] = Indicates an unobserved value
Date modified: